| time (UTC) | temp F | wind direction | speed knots | gust knots | rain 1hr in | rain 24hr in | rain mn in | humidity % | barometer mb |
| 20260505200008 | 59 | 323 | 6.1 | 9.6 | 0.00 | 0.39 | 0.00 | 52 | 1014.3 |
| 20260505194519 | 57 | 291 | 3.5 | 7.8 | 0.00 | 0.39 | 0.00 | 57 | 1014.4 |
| 20260505193010 | 57 | 163 | 1.7 | 9.6 | 0.00 | 0.39 | 0.00 | 58 | 1014.3 |
| 20260505191517 | 56 | 259 | 2.6 | 5.2 | 0.00 | 0.39 | 0.00 | 63 | 1014.3 |
| 20260505190011 | 54 | 294 | 3.5 | 6.1 | 0.00 | 0.39 | 0.00 | 65 | 1014.2 |
| 20260505184514 | 53 | 360 | 0.9 | 5.2 | 0.00 | 0.39 | 0.00 | 68 | 1014.2 |
| 20260505183017 | 53 | 337 | 4.3 | 8.7 | 0.00 | 0.39 | 0.00 | 66 | 1014.2 |
| 20260505181514 | 52 | 124 | 4.3 | 12.2 | 0.00 | 0.39 | 0.00 | 71 | 1014.1 |
| 20260505180013 | 52 | 292 | 5.2 | 10.4 | 0.00 | 0.39 | 0.00 | 72 | 1013.9 |
| 20260505174516 | 51 | 339 | 7.8 | 10.4 | 0.00 | 0.39 | 0.00 | 77 | 1013.8 |
| 20260505173017 | 50 | 277 | 5.2 | 8.7 | 0.00 | 0.39 | 0.00 | 76 | 1013.7 |
| 20260505171510 | 50 | 278 | 3.5 | 6.1 | 0.00 | 0.39 | 0.00 | 77 | 1013.6 |
| 20260505170017 | 49 | 41 | 3.5 | 9.6 | 0.00 | 0.39 | 0.00 | 82 | 1013.6 |
| 20260505164518 | 48 | 327 | 6.1 | 8.7 | 0.00 | 0.39 | 0.00 | 82 | 1013.5 |
| 20260505163008 | 47 | 42 | 3.5 | 6.1 | 0.00 | 0.39 | 0.00 | 85 | 1013.5 |
| 20260505161507 | 46 | 331 | 1.7 | 5.2 | 0.00 | 0.39 | 0.00 | 88 | 1013.3 |
| 20260505153019 | 44 | 290 | 0.9 | 3.5 | 0.00 | 0.39 | 0.00 | 90 | 1012.9 |
| 20260505151503 | 43 | 355 | 2.6 | 4.3 | 0.00 | 0.39 | 0.00 | 91 | 1012.8 |
| 20260505124535 | 41 | 325 | 1.7 | 3.5 | 0.00 | 0.39 | 0.00 | 94 | 1011.3 |
| 20260505123012 | 41 | 339 | 1.7 | 5.2 | 0.00 | 0.39 | 0.00 | 94 | 1011.1 |
| 20260505121517 | 41 | 320 | 1.7 | 4.3 | 0.00 | 0.39 | 0.00 | 94 | 1011.3 |
| 20260505120023 | 40 | 16 | 4.3 | 6.1 | 0.00 | 0.39 | 0.00 | 94 | 1011.2 |
| 20260505114523 | 40 | 345 | 3.5 | 7.0 | 0.00 | 0.39 | 0.00 | 94 | 1010.9 |
| 20260505113024 | 40 | 292 | 2.6 | 5.2 | 0.00 | 0.39 | 0.00 | 94 | 1010.9 |
| 20260505111512 | 39 | 313 | 1.7 | 3.5 | 0.00 | 0.39 | 0.00 | 94 | 1011.0 |
| 20260505101527 | 39 | 285 | 2.6 | 5.2 | 0.00 | 0.39 | 0.00 | 93 | 1011.3 |
| 20260505100014 | 39 | 244 | 1.7 | 2.6 | 0.00 | 0.39 | 0.00 | 93 | 1011.4 |
| 20260505094520 | 39 | 345 | 2.6 | 5.2 | 0.00 | 0.39 | 0.00 | 93 | 1011.3 |
| 20260505093004 | 40 | 304 | 2.6 | 5.2 | 0.00 | 0.39 | 0.00 | 93 | 1011.2 |
| 20260505091507 | 40 | 347 | 3.5 | 5.2 | 0.00 | 0.39 | 0.00 | 92 | 1011.4 |
| 20260505090011 | 40 | 160 | 1.7 | 2.6 | 0.00 | 0.39 | 0.00 | 92 | 1011.5 |
| 20260505084534 | 40 | 219 | 1.7 | 2.6 | 0.00 | 0.39 | 0.00 | 91 | 1011.8 |
| 20260505083018 | 40 | 166 | 0.0 | 0.9 | 0.00 | 0.39 | 0.00 | 91 | 1012.0 |
| 20260505081511 | 40 | 166 | 0.0 | 2.6 | 0.00 | 0.39 | 0.00 | 91 | 1012.0 |
| 20260505080009 | 40 | 214 | 0.0 | 1.7 | 0.00 | 0.39 | 0.00 | 91 | 1011.9 |
| 20260505074512 | 40 | 229 | 0.0 | 1.7 | 0.00 | 0.39 | 0.00 | 90 | 1012.1 |
| 20260505073016 | 40 | 273 | 1.7 | 4.3 | 0.00 | 0.39 | 0.00 | 90 | 1012.1 |
| 20260505071522 | 40 | 245 | 1.7 | 3.5 | 0.00 | 0.39 | 0.00 | 91 | 1012.1 |
| 20260505070033 | 40 | 271 | 2.6 | 4.3 | 0.00 | 0.39 | 0.00 | 92 | 1011.8 |
| 20260505064508 | 40 | 141 | 2.6 | 6.1 | 0.00 | 0.39 | 0.39 | 92 | 1011.6 |
| 20260505063010 | 40 | 286 | 3.5 | 7.0 | 0.00 | 0.39 | 0.39 | 92 | 1011.1 |
| 20260505061520 | 41 | 342 | 3.5 | 6.1 | 0.02 | 0.39 | 0.39 | 92 | 1010.9 |
| 20260505060028 | 41 | 337 | 5.2 | 7.0 | 0.03 | 0.39 | 0.39 | 92 | 1011.3 |
| 20260505054527 | 41 | 326 | 2.6 | 3.5 | 0.07 | 0.39 | 0.39 | 91 | 1011.5 |
| 20260505053011 | 41 | 128 | 2.6 | 4.3 | 0.08 | 0.39 | 0.39 | 92 | 1011.6 |
| 20260505051517 | 42 | 349 | 4.3 | 7.8 | 0.06 | 0.37 | 0.37 | 92 | 1012.5 |
| 20260505041530 | 42 | 174 | 2.6 | 8.7 | 0.04 | 0.31 | 0.31 | 88 | 1011.8 |
| 20260505040013 | 42 | 208 | 5.2 | 8.7 | 0.03 | 0.30 | 0.30 | 92 | 1011.6 |
| 20260505034524 | 40 | 219 | 1.7 | 1.7 | 0.02 | 0.29 | 0.29 | 93 | 1012.0 |
| 20260505033022 | 40 | 170 | 0.0 | 1.7 | 0.00 | 0.27 | 0.27 | 93 | 1012.2 |
| 20260505031527 | 40 | 171 | 0.9 | 7.0 | 0.00 | 0.27 | 0.27 | 92 | 1011.5 |
| 20260505030026 | 41 | 128 | 5.2 | 9.6 | 0.00 | 0.27 | 0.27 | 91 | 1011.2 |
| 20260505024515 | 41 | 169 | 1.7 | 11.3 | 0.07 | 0.27 | 0.27 | 90 | 1010.8 |
| 20260505023019 | 40 | 220 | 6.1 | 16.5 | 0.08 | 0.27 | 0.27 | 91 | 1011.1 |
| 20260505021523 | 41 | 214 | 10.4 | 18.2 | 0.09 | 0.27 | 0.27 | 91 | 1011.5 |
| 20260505020024 | 41 | 209 | 10.4 | 16.5 | 0.12 | 0.27 | 0.27 | 92 | 1011.5 |
| 20260505014528 | 42 | 169 | 13.0 | 25.2 | 0.05 | 0.20 | 0.20 | 89 | 1012.0 |
| 20260505013016 | 45 | 131 | 12.2 | 16.5 | 0.04 | 0.19 | 0.19 | 86 | 1011.7 |
| 20260505011543 | 46 | 243 | 6.1 | 15.6 | 0.03 | 0.18 | 0.18 | 82 | 1011.0 |
| 20260505010014 | 47 | 314 | 1.7 | 10.4 | 0.00 | 0.15 | 0.15 | 79 | 1010.3 |
| 20260505004507 | 48 | 293 | 11.3 | 15.6 | 0.00 | 0.15 | 0.15 | 74 | 1009.7 |
| 20260505003012 | 49 | 283 | 10.4 | 19.1 | 0.00 | 0.15 | 0.15 | 73 | 1009.3 |
| 20260505001503 | 49 | 287 | 7.8 | 20.0 | 0.00 | 0.15 | 0.15 | 75 | 1009.6 |
| 20260505000004 | 50 | 287 | 10.4 | 19.1 | 0.00 | 0.15 | 0.15 | 73 | 1009.9 |
| 20260504234507 | 51 | 236 | 13.9 | 20.9 | 0.00 | 0.15 | 0.15 | 72 | 1009.7 |
| 20260504233008 | 52 | 256 | 11.3 | 21.7 | 0.00 | 0.15 | 0.15 | 70 | 1009.7 |
| 20260504231515 | 52 | 286 | 13.0 | 16.5 | 0.04 | 0.15 | 0.15 | 71 | 1010.1 |
| 20260504230004 | 52 | 281 | 9.6 | 13.0 | 0.11 | 0.15 | 0.15 | 76 | 1010.3 |
| 20260504224511 | 49 | 217 | 5.2 | 15.6 | 0.13 | 0.15 | 0.15 | 85 | 1010.6 |
| 20260504223008 | 48 | 250 | 6.1 | 13.0 | 0.15 | 0.15 | 0.15 | 85 | 1010.8 |
| 20260504221512 | 49 | 125 | 7.8 | 12.2 | 0.11 | 0.11 | 0.11 | 82 | 1011.1 |
| 20260504220017 | 49 | 221 | 2.6 | 12.2 | 0.04 | 0.04 | 0.04 | 79 | 1010.6 |
| 20260504214522 | 51 | 139 | 4.3 | 16.5 | 0.02 | 0.02 | 0.02 | 75 | 1011.0 |
| 20260504213004 | 55 | 213 | 7.0 | 13.0 | 0.00 | 0.00 | 0.00 | 59 | 1010.3 |
| 20260504211511 | 56 | 140 | 4.3 | 9.6 | 0.00 | 0.00 | 0.00 | 57 | 1010.8 |
| 20260504210019 | 58 | 269 | 7.8 | 13.0 | 0.00 | 0.00 | 0.00 | 50 | 1010.7 |
| 20260504204520 | 58 | 283 | 5.2 | 15.6 | 0.00 | 0.00 | 0.00 | 51 | 1010.7 |
| 20260504203025 | 58 | 329 | 10.4 | 14.8 | 0.00 | 0.00 | 0.00 | 51 | 1010.8 |
| 20260504201507 | 57 | 285 | 8.7 | 13.9 | 0.00 | 0.00 | 0.00 | 52 | 1011.1 |